Time,B instrument,Bx,By,Bz,sigma B,Ion instrument,Status,Tp_par,Tp_perp,carrot,r_sun,clat,clong,earth_he_angle,n_p,vp_x,vp_y,vp_z,vth_p_par,vth_p_perp
1980-12-18 00:03:54,-1,nan,nan,nan,nan,1,4,nan,nan,1703,0.41239113,7.0178232,224.70909,245.88878,nan,nan,nan,nan,nan,nan
1980-12-18 00:09:20,1,-25.6667,9.56667,14.9333,0.948683,1,1,95390.7,112787.0,1703,0.41244352,7.0183182,224.67453,245.90109,28.3317,344.429,-15.2853,56.938,39.6836,43.1507
1980-12-18 00:14:44,1,-25.1,8.5,14.1,3.50143,1,1,44572.0,86274.7,1703,0.41248727,7.0187321,224.63402,245.91136,30.1709,328.561,56.2284,1.05797,27.1262,37.7398
1980-12-18 00:20:08,1,-22.85,14.4,14.4,0.269258,1,1,56333.7,80589.9,1703,0.41253972,7.019228,224.59555,245.92368,29.1487,322.719,23.744,37.3649,30.4959,36.4753
1980-12-18 00:25:32,1,-28.4667,8.2,11.4,0.426875,1,1,101207.0,109804.0,1703,0.41258341,7.0196409,224.55893,245.93393,28.3982,321.675,3.45329,16.6767,40.8756,42.5763
1980-12-18 00:30:56,1,-28.4667,3.16667,12.8,0.413656,1,1,91927.6,87838.2,1703,0.4126271,7.0200539,224.51842,245.9442,26.5361,318.156,-19.1763,16.3235,38.9566,38.0802
1980-12-18 00:31:19,1,-28.2667,3.4,13.3333,0.312694,1,1,95555.2,109102.0,1703,0.41263586,7.0201368,224.51656,245.94624,24.6714,330.537,-33.6152,14.9767,39.7178,42.4399
1980-12-18 00:36:20,1,-27.3667,4.23333,14.4,0.551765,1,1,115615.0,101725.0,1703,0.41081563,7.0578632,223.8252,245.29785,27.7449,328.891,-4.54115,26.839,43.6884,40.9801
1980-12-18 00:41:44,1,-29.7,-0.466667,12.2667,0.278887,1,1,91727.2,120317.0,1703,0.41272324,7.0209627,224.44333,245.96677,22.5763,335.528,-25.8075,18.4943,38.9141,44.5678
1980-12-18 00:47:08,1,-26.35,2.45,17.5,0.608276,1,1,88659.8,100867.0,1703,0.4127757,7.0214586,224.40486,245.97908,23.6102,339.367,-20.5196,23.0454,38.2579,40.8067
1980-12-18 00:52:32,1,-26.3,2.15,17.9,0.657647,1,1,90229.3,109873.0,1703,0.41281939,7.0218716,224.36826,245.98935,23.9105,334.397,-27.8268,25.8492,38.595,42.5895
1980-12-18 00:57:56,1,-27.9333,-2.06667,15.0667,1.11952,1,1,96999.4,110569.0,1703,0.41286314,7.0222855,224.32773,245.9996,25.4864,336.242,-31.407,24.8861,40.0168,42.7242
1980-12-18 01:03:54,1,-27.3333,-1.2,15.4667,2.08753,1,1,85875.5,117728.0,1703,0.41291559,7.0227776,224.28534,246.0119,27.9756,336.106,-40.016,17.1953,37.6524,44.0857
1980-12-18 01:57:43,-1,nan,nan,nan,nan,1,3,nan,nan,1703,0.41338789,7.0271759,223.90358,246.12233,nan,343.886,21.202,16.6474,nan,nan
1980-12-18 02:40:55,-1,nan,nan,nan,nan,1,3,nan,nan,1703,0.41376436,7.030633,223.59671,246.20999,nan,352.746,47.4406,-31.2524,nan,nan
1980-12-18 03:24:08,-1,nan,nan,nan,nan,1,3,nan,nan,1703,0.4141497,7.0341377,223.2917,246.29951,nan,329.261,0.737591,0.252019,nan,nan
1980-12-18 04:07:20,-1,nan,nan,nan,nan,1,3,nan,nan,1703,0.41452646,7.0375319,222.98447,246.38681,nan,349.313,9.01293,37.3893,nan,nan
1980-12-18 07:43:12,-1,nan,nan,nan,nan,1,3,nan,nan,1703,0.41642249,7.0540142,221.44693,246.82193,nan,349.651,-33.9292,71.0206,nan,nan
1980-12-18 07:48:36,1,-16.8667,5.43333,26.4,3.39182,1,1,72043.2,96993.0,1703,0.41646641,7.0543861,221.40617,246.83195,23.4239,347.933,-41.0527,70.9561,34.4869,40.0155
1980-12-18 07:54:00,1,-12.2,30.4333,3.03333,0.911653,1,1,110553.0,106128.0,1703,0.41651917,7.0548334,221.37132,246.84398,27.2074,363.604,-7.24485,74.4266,42.7211,41.8575
1980-12-18 07:56:26,1,-16.0667,30.3667,3.83333,0.270801,1,1,51054.5,97980.6,1703,0.41653675,7.0549822,221.35188,246.84798,21.6242,351.341,39.4162,12.891,29.0319,40.2187
1980-12-18 08:01:50,1,-18.5333,25.1,12.7,0.385861,1,1,58780.2,106117.0,1703,0.41658068,7.0553532,221.31111,246.85799,23.5601,352.75,25.7515,38.3235,31.1511,41.8554
1980-12-18 08:07:14,1,-14.7333,16.1667,23.0667,0.864099,1,1,54112.9,101391.0,1703,0.41663343,7.0557938,221.27621,246.86996,21.3839,351.981,-0.829348,72.721,29.8888,40.9126
1980-12-18 08:12:38,1,-23.9667,14.2333,12.8,0.42947,1,1,79301.8,147128.0,1703,0.41667742,7.0561609,221.23543,246.87996,23.7906,334.843,-8.58807,61.3982,36.1826,49.284
1980-12-18 09:13:48,-1,nan,nan,nan,nan,1,3,nan,nan,1703,0.41721392,7.0606213,220.79854,247.00166,nan,320.267,-9.99178,42.622,nan,nan
1980-12-18 09:19:12,-1,nan,nan,nan,nan,1,3,nan,nan,1703,0.41726673,7.0610542,220.75969,247.0136,nan,330.728,-1.23497,54.9665,nan,nan
1980-12-18 09:24:36,1,-19.3,8.93333,15.4,1.84992,1,1,63290.6,129162.0,1703,0.41731077,7.0614157,220.72278,247.02356,23.2799,336.76,25.6508,46.2607,32.3242,46.177
1980-12-18 09:30:00,1,-22.5333,6.96667,11.9333,0.282843,1,1,68488.4,124507.0,1703,0.41736352,7.0618496,220.68393,247.03549,21.912,316.634,3.44728,35.8623,33.6253,45.3372
1980-12-18 09:35:26,1,-18.3,7.6,15.5,1.82483,1,1,79424.2,115724.0,1703,0.41740757,7.0622101,220.6431,247.04544,22.6835,312.62,14.3506,15.353,36.2105,43.7089
1980-12-18 09:40:50,1,-18.7667,6.4,16.4667,0.625389,1,1,79059.2,113824.0,1703,0.41745156,7.0625715,220.60617,247.05539,20.6371,327.93,8.7253,46.6373,36.1272,43.3485
1980-12-18 10:03:36,-1,nan,nan,nan,nan,1,3,nan,nan,1703,0.41765404,7.064229,220.44098,247.10114,nan,346.885,30.9532,53.0437,nan,nan
1980-12-18 10:04:57,1,-14.42,12.22,17.2,0.709366,1,1,56031.0,91798.9,1703,0.41766286,7.0643005,220.43124,247.10312,22.1102,329.268,30.7446,35.2087,30.4139,38.9293
1980-12-18 10:06:18,1,-14.5143,12.1714,16.9714,0.801529,1,1,70959.6,89712.4,1703,0.41768044,7.0644426,220.42349,247.10709,21.8096,341.118,32.9773,48.4837,34.2266,38.4843
1980-12-18 10:06:29,1,-13.7333,12.1833,17.4667,0.464579,1,1,64139.1,83393.2,1703,0.41768044,7.0644426,220.42349,247.10709,21.3511,339.566,33.5324,45.3485,32.5401,37.1042
1980-12-18 10:07:50,1,-14.8333,11.6833,16.8,0.316667,1,1,69711.1,99797.3,1703,0.41768926,7.0645142,220.41376,247.10907,21.3368,340.334,31.8895,48.2361,33.9241,40.5898
1980-12-18 10:09:11,1,-14.2,12.4833,16.9333,0.283333,1,1,68006.1,104268.0,1703,0.41770685,7.0646563,220.4021,247.11304,21.0872,340.676,36.4316,47.4207,33.5067,41.489
1980-12-18 10:10:32,1,-14.5667,11.2167,17.1,1.04735,1,1,69214.3,90796.8,1703,0.41771567,7.0647278,220.39236,247.11502,20.3823,343.968,33.9492,50.1864,33.803,38.7162
1980-12-18 10:11:53,1,-14.8833,11.9,16.2667,1.43769,1,1,59837.7,97183.3,1703,0.41772449,7.0647984,220.38263,247.117,20.2973,339.135,29.6915,48.7251,31.4301,40.0547
1980-12-18 10:13:14,1,-15.2167,11.85,16.4,0.632895,1,1,64488.4,103562.0,1703,0.41774207,7.0649414,220.37488,247.12097,20.6926,337.596,37.7438,42.8108,32.6286,41.3483
1980-12-18 10:14:35,1,-14.7,10.4167,17.3667,0.424591,1,1,65563.3,100014.0,1703,0.4177509,7.065012,220.36514,247.12296,19.7791,336.962,28.5603,48.1384,32.8994,40.6338
1980-12-18 10:15:56,1,-15.1667,13.4833,15.1333,0.556028,1,1,62711.8,82965.0,1703,0.41775972,7.0650835,220.35541,247.12494,18.6028,340.698,29.9039,47.6724,32.176,37.0088
1980-12-18 10:17:17,1,-15.2,10.5333,16.9333,0.413656,1,1,70957.6,86096.7,1703,0.4177773,7.0652256,220.34375,247.12891,21.7707,339.573,31.3008,44.9879,34.2261,37.7008
1980-12-18 10:18:38,1,-13.9833,11.9333,17.2,0.365529,1,1,67591.0,89056.5,1703,0.41778612,7.0652971,220.33401,247.13089,20.4406,339.658,32.3953,49.0335,33.4043,38.3434
1980-12-18 10:19:59,1,-14.2833,12.4667,16.8667,0.390512,1,1,62290.1,91362.9,1703,0.41779494,7.0653677,220.32428,247.13287,18.1756,337.119,25.2468,53.3805,32.0677,38.8367
1980-12-18 10:21:20,1,-13.9,12.6333,17.2667,0.417665,1,1,73223.3,83221.1,1703,0.41781253,7.0655098,220.31653,247.13684,20.5929,346.131,32.62,46.6356,34.7682,37.0659
1980-12-18 10:22:41,1,-13.3667,13.1833,17.3333,0.298608,1,1,75228.8,75576.0,1703,0.41782135,7.0655813,220.30679,247.13882,19.1103,346.021,34.1925,44.2495,35.2411,35.3224
1980-12-18 10:24:02,1,-14.9667,13.8667,15.3,0.611919,1,1,71928.4,71864.7,1703,0.41783899,7.0657234,220.29904,247.14279,18.0423,344.262,32.4947,43.7377,34.4594,34.4442
1980-12-18 10:25:23,1,-14.1333,14.9167,15.5333,0.540833,1,1,70433.8,75313.8,1703,0.41784775,7.0657949,220.2854,247.14478,20.5054,344.841,36.2929,39.4273,34.0995,35.261
1980-12-18 10:26:44,1,-12.7667,14.4167,16.4667,0.662697,1,1,72539.9,86431.3,1703,0.41785657,7.0658665,220.27567,247.14676,19.7672,347.413,37.4978,46.7815,34.6056,37.774
1980-12-18 10:28:05,1,-11.7833,15.7,15.9333,0.82479,1,1,67194.6,82172.6,1703,0.41787422,7.0660086,220.26791,247.15073,20.5521,342.325,42.9641,38.1897,33.3062,36.8317
1980-12-18 10:29:26,1,-10.1667,15.9167,16.5333,1.2816,1,1,73971.1,90904.4,1703,0.41788298,7.0660791,220.25818,247.15271,20.9813,353.506,36.9156,51.1266,34.9453,38.7392
1980-12-18 10:30:47,1,-11.85,12.3,18.6667,0.651707,1,1,75455.3,92172.9,1703,0.4178918,7.0661507,220.24844,247.15469,20.5292,349.69,32.844,50.3061,35.2941,39.0085
1980-12-18 10:32:08,1,-8.66667,16.4667,17.1333,3.44335,1,1,68860.5,72774.1,1703,0.41790944,7.0662928,220.24068,247.15865,19.3803,353.628,30.497,49.7284,33.7165,34.6614
1980-12-18 10:33:29,1,-10.3,12.95,18.5,5.07141,1,1,70671.2,78377.7,1703,0.41791821,7.0663643,220.23094,247.16063,19.9408,364.709,41.1294,48.0631,34.157,35.9711
1980-12-18 10:34:50,1,-13.1,8.16667,20.1333,0.487625,1,1,78141.1,76269.1,1703,0.41792703,7.0664358,220.2173,247.16261,19.7695,345.662,7.4397,57.318,35.9168,35.484
1980-12-18 10:36:11,1,-11.6333,7.35,20.7333,0.986717,1,1,82395.6,83143.2,1703,0.41794467,7.0665779,220.20955,247.16658,19.0631,344.037,10.4481,57.8205,36.8816,37.0485
1980-12-18 10:37:32,1,-9.7,12.1833,19.7667,0.608505,1,1,76694.4,84091.1,1703,0.41795343,7.0666485,220.19981,247.16856,19.2908,354.277,21.5702,59.7797,35.5828,37.2592
1980-12-18 10:38:53,1,-7.63333,7.25,22.0667,2.88795,1,1,80626.8,77234.7,1703,0.41796225,7.06672,220.19008,247.17055,19.2183,358.391,32.2284,52.7072,36.4836,35.7079
1980-12-18 10:40:14,1,-6.37143,19.6,15.0571,1.86974,1,1,66698.8,86996.2,1703,0.4179799,7.0668621,220.18233,247.17451,24.1679,368.45,32.3824,57.7164,33.1831,37.8973
1980-12-18 10:41:35,1,-6.98333,14.6833,19.1333,0.740495,1,1,71390.1,80474.7,1703,0.41798866,7.0669336,220.17259,247.1765,21.3389,370.091,35.1,59.3576,34.3302,36.4492
1980-12-18 10:42:56,1,-7.26667,15.5833,18.7333,0.697017,1,1,78370.0,66286.1,1703,0.41799748,7.0670042,220.15895,247.17848,20.0828,366.819,38.8012,54.8682,35.9694,33.0803
1980-12-18 10:44:17,1,-6.43333,14.8167,19.8333,0.780491,1,1,75887.6,77690.4,1703,0.41801512,7.0671473,220.1512,247.18245,20.4105,366.695,35.5476,55.7775,35.3951,35.8131
1980-12-18 10:45:38,1,-5.71429,13.9571,20.2857,0.936123,1,1,82328.5,72305.0,1703,0.41802388,7.0672178,220.14146,247.18443,20.3427,372.03,35.1366,59.1726,36.8666,34.5495
1980-12-18 10:46:59,1,-5.24286,12.5714,21.5429,0.672795,1,1,75465.2,74028.7,1703,0.41803271,7.0672894,220.13173,247.18642,19.1465,376.806,31.6217,58.3626,35.2965,34.9589
1980-12-18 10:48:20,1,-4.35714,14.1143,21.2857,0.409579,1,1,79601.0,65646.6,1703,0.41805035,7.0674314,220.12398,247.19038,17.3443,376.431,27.9963,57.9345,36.2508,32.9203
1980-12-18 10:49:41,1,-2.14286,15.6571,20.3143,1.19659,1,1,74390.2,68430.9,1703,0.41805911,7.067503,220.11424,247.19237,18.6456,387.598,40.9065,51.7537,35.0442,33.6112
1980-12-18 10:51:02,1,-1.47143,15.5143,20.3714,0.967851,1,1,72845.6,60733.4,1703,0.41807675,7.0676451,220.10258,247.19633,16.7311,391.576,38.1798,57.0405,34.6784,31.6644
1980-12-18 10:52:23,1,-3.9,14.4167,20.4333,0.898301,1,1,74076.1,75320.7,1703,0.41808558,7.0677166,220.09285,247.19832,18.8186,376.695,28.3988,59.8707,34.9701,35.2627
1980-12-18 10:53:44,1,-0.342857,15.5,20.0857,0.691346,1,1,82609.6,74552.6,1703,0.41809434,7.0677872,220.08311,247.2003,20.7929,395.914,41.2615,57.4839,36.9295,35.0824
1980-12-18 10:55:05,1,-0.371429,14.8714,20.4571,0.540597,1,1,85326.9,68510.9,1703,0.41811198,7.0679293,220.07536,247.20427,20.4652,398.38,38.1651,58.1516,37.5319,33.6308
1980-12-18 10:56:26,1,-2.48571,15.4857,19.7714,0.394865,1,1,74961.3,63733.3,1703,0.4181208,7.0680008,220.06563,247.20625,18.7585,383.795,36.8076,57.5913,35.1784,32.437
1980-12-18 10:57:47,1,-2.58571,15.3714,19.8286,0.341665,1,1,81893.5,66762.3,1703,0.41812956,7.0680723,220.05589,247.20824,19.3618,383.849,36.0339,60.4218,36.7691,33.1989
1980-12-18 10:59:08,1,-3.35714,14.7143,19.8571,2.04321,1,1,71650.4,49830.9,1703,0.41814721,7.0682144,220.04424,247.2122,15.7374,383.874,34.7632,62.9902,34.3928,28.6818
1980-12-18 11:00:29,1,-1.65714,16.5143,18.6571,1.96552,1,1,78420.7,70918.1,1703,0.41815603,7.0682859,220.0345,247.21419,21.1506,399.65,43.0024,56.8537,35.981,34.2166
1980-12-18 11:01:50,1,-2.97143,16.4857,18.7714,0.638877,1,1,81243.2,67956.3,1703,0.41816479,7.0683556,220.02475,247.21616,20.1965,386.765,35.7164,60.0344,36.6228,33.4944
1980-12-18 11:03:11,1,-1.41429,17.8,18.0286,1.17976,1,1,77293.8,69145.7,1703,0.41818243,7.0684958,220.01698,247.22011,21.8918,391.424,46.2074,54.2787,35.7216,33.7863
1980-12-18 11:04:32,1,-4.48571,18.7286,16.6571,1.50333,1,1,81333.1,68310.8,1703,0.41819125,7.0685654,220.00725,247.22209,19.3538,373.259,47.0205,50.6219,36.643,33.5817
1980-12-18 11:05:53,1,-6.58571,15.7429,18.3143,1.06866,1,1,61985.6,82412.8,1703,0.41820008,7.0686359,219.9975,247.22406,25.6063,363.943,52.1668,40.8011,31.9892,36.8855
1980-12-18 11:07:14,1,-7.15,15.65,18.0333,2.165,1,1,70508.0,64272.3,1703,0.41821772,7.0687752,219.98973,247.22801,19.508,358.696,42.8526,49.4064,34.1175,32.5739
1980-12-18 11:08:35,1,-7.08333,18.4333,15.8667,2.85351,1,1,67484.2,55950.4,1703,0.41822654,7.0688457,219.97609,247.23,17.562,368.911,58.7091,37.0174,33.3779,30.392
1980-12-18 11:11:15,1,-12.5,16.94,14.48,0.34641,1,1,70372.4,64251.2,1703,0.41637418,7.1046829,219.31519,246.59253,18.8224,348.034,46.616,36.8485,34.0847,32.5686
1980-12-18 11:12:36,1,-9.8,18.3714,14.4,2.31869,1,1,73986.1,64488.0,1703,0.41638577,7.1047735,219.30615,246.59521,20.2881,355.625,49.3417,35.8881,34.9489,32.6285
1980-12-18 11:15:02,1,-10.8833,15.5833,16.3333,2.17217,1,1,70385.3,66853.3,1703,0.41827059,7.0691957,219.92737,247.23987,20.2052,351.792,42.883,42.276,34.0878,33.2215
1980-12-18 11:15:18,1,-9.61429,16.7143,16.3429,1.0194,1,1,69167.7,67471.6,1703,0.41828823,7.0693359,219.93132,247.24382,20.8121,362.783,49.6928,41.9004,33.7917,33.3748
1980-12-18 11:16:41,1,-8.34286,17.2714,16.5714,0.415024,1,1,69895.5,61774.0,1703,0.41829699,7.0694056,219.91768,247.2458,19.6715,366.272,46.3519,44.2164,33.969,31.9345
1980-12-18 11:18:02,-1,nan,nan,nan,nan,1,3,nan,nan,1703,0.41831464,7.0695457,219.90991,247.24976,nan,384.601,35.3575,58.1336,nan,nan
1980-12-18 11:19:23,-1,nan,nan,nan,nan,1,3,nan,nan,1703,0.41832346,7.0696154,219.90016,247.25172,nan,366.485,42.6529,48.3902,nan,nan
1980-12-18 11:23:26,-1,nan,nan,nan,nan,1,3,nan,nan,1703,0.41835868,7.0698957,219.87291,247.25963,nan,333.119,31.4391,34.2502,nan,nan
1980-12-18 11:24:47,-1,nan,nan,nan,nan,1,3,nan,nan,1703,0.41836751,7.0699654,219.85927,247.26161,nan,347.743,41.3647,37.3416,nan,nan
1980-12-18 11:26:08,-1,nan,nan,nan,nan,1,3,nan,nan,1703,0.41838515,7.0701056,219.8515,247.26556,nan,348.198,40.0492,39.4839,nan,nan
1980-12-18 11:27:29,-1,nan,nan,nan,nan,1,3,nan,nan,1703,0.41839397,7.0701752,219.84177,247.26755,nan,353.765,45.5361,40.5813,nan,nan
1980-12-18 11:28:50,1,-12.2333,16.0,15.5667,1.08679,1,1,66993.6,56157.4,1703,0.41840279,7.0702457,219.83202,247.26952,17.0703,344.631,36.6538,40.4651,33.2564,30.4482
1980-12-18 11:30:11,1,-10.7167,18.0333,14.7667,0.782624,1,1,67822.6,66720.0,1703,0.41842043,7.0703859,219.82425,247.27347,19.9387,356.315,49.641,36.1575,33.4615,33.1884
1980-12-18 11:31:32,1,-13.9833,16.05,14.4667,0.672888,1,1,70411.9,69689.4,1703,0.4184292,7.0704556,219.81451,247.27545,21.2967,342.516,44.7928,28.5771,34.0942,33.9189
1980-12-18 11:32:53,1,-13.3833,16.6667,14.3,0.881445,1,1,62656.5,67694.9,1703,0.41843802,7.0705252,219.80476,247.27742,19.9918,350.002,43.9821,38.4889,32.1619,33.43
1980-12-18 11:34:14,1,-13.25,15.1833,15.8,1.00028,1,1,63716.8,70119.2,1703,0.41845566,7.0706654,219.79309,247.28137,22.0318,344.543,39.5427,40.5967,32.4328,34.0233
1980-12-18 11:35:35,1,-13.3333,16.9,14.6,1.59757,1,1,79209.7,64080.2,1703,0.41846448,7.0707359,219.78336,247.28336,19.717,347.517,40.7891,35.127,36.1616,32.5252
1980-12-18 11:36:56,1,-15.52,16.82,12.32,0.548452,1,1,71855.9,72907.6,1703,0.4184733,7.0708055,219.77361,247.28532,22.923,340.712,42.1894,27.8949,34.4421,34.6932
1980-12-18 11:38:17,1,-10.3167,20.2667,12.7333,0.736546,1,1,70442.1,81898.0,1703,0.41849089,7.0709457,219.76584,247.28928,25.1816,363.394,54.9675,30.8921,34.1015,36.7701
1980-12-18 11:39:38,-1,nan,nan,nan,nan,1,4,nan,nan,1703,0.41849971,7.0710154,219.7561,247.29126,nan,nan,nan,nan,nan,nan
1980-12-18 11:40:59,1,-20.98,15.62,4.84,0.998799,1,1,62066.2,71208.9,1703,0.41850853,7.0710859,219.74635,247.29323,20.7173,316.918,36.4256,-5.72471,32.01,34.2867
1980-12-18 11:42:20,1,-18.7333,13.1833,11.5667,2.46424,1,1,64700.6,64696.0,1703,0.41852617,7.0712252,219.73468,247.29718,20.7447,331.917,43.6177,12.8879,32.6823,32.6811
1980-12-18 11:43:41,1,-21.58,13.46,6.6,1.01193,1,1,69456.7,66975.9,1703,0.41853499,7.0712957,219.72495,247.29916,21.7312,312.306,25.3563,0.739884,33.8622,33.252
1980-12-18 11:45:02,1,-19.6,16.2833,6.6,1.65168,1,1,63629.9,60203.7,1703,0.41855264,7.0714359,219.71718,247.30312,18.7162,334.055,44.7345,9.69015,32.4107,31.5261
1980-12-18 11:46:23,1,-11.5167,19.1333,11.4333,4.80443,1,1,62214.0,75301.3,1703,0.4185614,7.0715055,219.70743,247.30508,23.4848,355.096,45.9336,34.0964,32.0481,35.2581
1980-12-18 11:47:44,-1,nan,nan,nan,nan,1,4,nan,nan,1703,0.41857022,7.0715752,219.69769,247.30707,nan,nan,nan,nan,nan,nan
1980-12-18 11:49:05,1,-9.88333,22.8167,9.2,0.571061,1,1,65351.2,52480.8,1703,0.41858786,7.0717154,219.68993,247.31102,15.2575,353.488,64.0184,10.8663,32.8462,29.4346
1980-12-18 11:50:26,1,-11.05,22.1333,9.83333,0.716667,1,1,61197.4,64290.1,1703,0.41859668,7.0717859,219.67627,247.31299,22.256,355.376,58.7744,19.4008,31.7851,32.5784
1980-12-18 11:51:47,1,-9.2,20.7,12.7333,1.122,1,1,60417.0,60780.9,1703,0.41860551,7.0718555,219.66653,247.31497,20.5725,340.424,50.9348,14.2589,31.5818,31.6768
1980-12-18 11:53:08,1,-14.8833,18.0333,11.3667,1.77834,1,1,63552.6,61267.8,1703,0.41862309,7.0719957,219.65877,247.31892,20.852,345.002,50.1068,21.7292,32.391,31.8034
1980-12-18 11:54:29,1,-9.63333,21.7,11.1667,0.707892,1,1,61319.1,63208.8,1703,0.41863191,7.0720654,219.64902,247.32089,20.4292,350.292,53.7259,19.6742,31.8167,32.3033
1980-12-18 11:55:50,1,-15.1,20.3833,8.13333,0.506897,1,1,58938.0,55192.3,1703,0.41864073,7.0721359,219.63928,247.32288,18.489,333.712,49.2332,8.84805,31.1929,30.1854
1980-12-18 11:57:11,1,-12.3,22.4833,7.4,1.0431,1,1,61477.2,64136.2,1703,0.41865838,7.0722752,219.63152,247.32683,22.1924,348.967,63.389,1.04416,31.8577,32.5394
1980-12-18 11:58:32,1,-9.06,24.52,6.48,0.915205,1,1,54976.7,48201.9,1703,0.4186672,7.0723457,219.62178,247.32881,27.6822,314.931,107.724,-1.53564,30.1264,28.2091
1980-12-18 11:59:51,1,-11.6333,22.95,7.26667,1.07251,1,1,64192.0,55423.2,1703,0.41867602,7.0724154,219.60812,247.33078,22.1131,346.486,58.2479,10.0102,32.5535,30.2485
1980-12-18 12:01:12,1,-10.7,23.2,8.23333,0.434613,1,1,68308.1,55240.4,1703,0.4186936,7.0725546,219.60036,247.33473,21.9468,349.124,60.5025,6.67079,33.581,30.1986
1980-12-18 12:02:33,1,-7.44,23.5,9.96,0.795487,1,1,57575.7,64501.2,1703,0.41870248,7.0726233,219.59061,247.3367,24.9127,348.132,60.1092,8.55798,30.8303,32.6319
1980-12-18 12:03:54,1,-10.0857,22.7429,9.54286,2.16276,1,1,66544.0,50807.7,1703,0.4187113,7.0726919,219.58086,247.33867,19.3311,356.199,60.6218,10.4127,33.1446,28.9616
1980-12-18 12:05:17,1,-10.15,22.4,10.0667,0.643989,1,1,58351.5,51315.1,1703,0.41872889,7.0728302,219.57307,247.34261,18.8499,345.653,59.4064,6.99561,31.0373,29.1059
1980-12-18 12:06:38,1,-12.7,21.75,7.93333,2.4849,1,1,64533.2,60816.5,1703,0.41873771,7.0728989,219.56332,247.34457,22.5923,344.833,56.8435,8.32545,32.6399,31.6861
1980-12-18 12:07:59,1,-19.08,19.38,2.32,0.385746,1,1,54614.3,61203.6,1703,0.41874653,7.0729675,219.54967,247.34654,21.0305,317.901,50.9882,-14.4193,30.0269,31.7868
1980-12-18 12:09:20,1,-13.62,22.8,4.76,0.867179,1,1,65696.9,59602.4,1703,0.41876417,7.0731049,219.54189,247.35048,22.8614,336.085,60.6672,-5.05816,32.9329,31.3682
1980-12-18 12:10:41,1,-14.78,21.26,6.28,0.901998,1,1,62151.1,60773.8,1703,0.418773,7.0731745,219.53214,247.35245,22.7901,334.123,58.5102,-3.62758,32.0319,31.675
1980-12-18 12:12:02,1,-12.5333,21.6,8.56667,0.742369,1,1,66631.8,59897.0,1703,0.41879064,7.0733118,219.52435,247.35638,23.3649,335.616,51.2078,8.77831,33.1664,31.4456
1980-12-18 12:13:23,1,-13.2833,20.5833,9.06667,0.508265,1,1,67802.2,55822.4,1703,0.41879946,7.0733805,219.5146,247.35835,20.8307,331.286,50.6478,0.637103,33.4564,30.3572
1980-12-18 12:14:44,1,-17.52,18.44,5.96,0.72,1,1,57811.1,57249.5,1703,0.41880828,7.0734501,219.50487,247.36034,21.1962,319.315,44.2021,-2.06925,30.8933,30.7428
1980-12-18 12:16:05,1,-17.0,17.3,8.6,2.2,1,1,68610.1,58214.5,1703,0.41882592,7.0735874,219.49318,247.36427,22.8652,320.223,42.5209,-0.427921,33.6552,31.0008
1980-12-18 12:17:26,1,-13.0167,19.95,10.4,0.983475,1,1,57198.4,62932.7,1703,0.41883475,7.0736561,219.48343,247.36624,22.2132,329.876,47.3651,10.2006,30.7291,32.2327
1980-12-18 12:18:47,1,-13.6,19.68,10.12,1.1503,1,1,63643.3,59207.7,1703,0.41884357,7.0737247,219.47368,247.36821,21.7161,334.461,48.8655,6.0213,32.4141,31.2642
1980-12-18 12:20:08,1,-2.33333,15.8,17.1667,2.3877,1,1,62686.8,122176.0,1703,0.41886121,7.073863,219.4659,247.37215,32.9258,324.983,50.8071,20.1787,32.1696,44.9107
1980-12-18 12:21:29,1,-10.06,17.74,13.28,0.628013,1,1,58676.9,54707.1,1703,0.41887003,7.0739317,219.45615,247.37411,21.0783,326.862,59.6751,15.6605,31.1237,30.0524
1980-12-18 12:22:50,-1,nan,nan,nan,nan,1,4,nan,nan,1703,0.41887885,7.0740004,219.4464,247.37608,nan,nan,nan,nan,nan,nan
1980-12-18 12:24:11,1,-12.1167,18.2,11.6,1.62728,1,1,50154.9,53997.8,1703,0.4188965,7.0741386,219.43861,247.38002,20.0799,324.781,58.4935,15.8613,28.7749,29.857
1980-12-18 12:25:32,1,-10.98,19.82,11.72,0.74619,1,1,59105.9,61882.8,1703,0.41890532,7.0742073,219.42496,247.38199,21.4973,330.456,59.663,9.4966,31.2373,31.9627
1980-12-18 12:26:53,1,-15.34,19.04,6.64,1.15378,1,1,54804.7,59733.4,1703,0.41891414,7.074276,219.41521,247.38396,20.0818,312.281,53.5232,7.12751,30.0792,31.4027
1980-12-18 12:28:14,1,-15.62,18.32,6.64,2.71838,1,1,56422.4,54639.7,1703,0.41893178,7.0744143,219.40742,247.38789,16.7093,313.341,63.7504,-14.5615,30.52,30.0339
1980-12-18 12:29:35,1,-17.28,19.46,0.88,1.72557,1,1,39318.0,34996.4,1703,0.4189406,7.0744829,219.39769,247.38988,20.5916,300.33,60.67,-32.588,25.4773,24.0364
1980-12-18 12:30:56,1,-15.3167,21.4167,-0.233333,3.13129,1,1,35442.0,45727.1,1703,0.41894943,7.0745516,219.38794,247.39185,23.1566,301.649,60.4391,-7.95223,24.1889,27.4755
1980-12-18 12:32:17,1,-12.6,21.64,7.16,1.23806,1,1,46412.1,38233.9,1703,0.41896701,7.0746889,219.38016,247.39578,23.9012,318.364,67.2943,-9.18376,27.6805,25.1236
1980-12-18 12:33:38,-1,nan,nan,nan,nan,1,4,nan,nan,1703,0.41897583,7.0747585,219.3665,247.39775,nan,nan,nan,nan,nan,nan
1980-12-18 12:34:59,1,-7.54,24.6,-9.68,2.91479,1,1,46186.8,44035.8,1703,0.41898471,7.0748272,219.35675,247.39972,26.2444,330.504,76.2831,-66.4711,27.6132,26.9625
1980-12-18 12:37:41,1,-17.34,18.94,2.48,1.22082,1,1,38940.9,35730.4,1703,0.41901112,7.0750341,219.33922,247.40562,19.3214,301.352,62.7271,-20.9155,25.3548,24.2872
1980-12-18 12:39:02,-1,nan,nan,nan,nan,1,4,nan,nan,1703,0.41902876,7.0751715,219.33144,247.40956,nan,nan,nan,nan,nan,nan
1980-12-18 12:40:23,-1,nan,nan,nan,nan,1,4,nan,nan,1703,0.41903758,7.0752401,219.32169,247.41153,nan,nan,nan,nan,nan,nan
1980-12-18 12:41:44,1,-21.0,14.175,3.85,1.28817,1,1,43689.9,46461.3,1703,0.4190464,7.0753088,219.30803,247.4135,22.4736,287.984,37.7549,-10.7024,26.8564,27.6951
1980-12-18 12:43:05,1,-18.525,17.425,1.55,0.553399,1,1,37482.5,44789.4,1703,0.41906404,7.0754471,219.30025,247.41743,19.7042,294.129,54.1949,-21.4296,24.8755,27.1923
1980-12-18 12:44:26,1,-17.92,18.16,2.04,3.54491,1,1,43452.9,41174.1,1703,0.41907287,7.0755157,219.2905,247.4194,18.8685,293.749,60.0607,-23.7428,26.7835,26.0717
1980-12-18 12:45:47,1,-16.92,19.84,-1.24,0.338231,1,1,41602.2,34672.5,1703,0.41908169,7.0755844,219.28076,247.42139,21.4056,303.973,66.2989,-40.0832,26.2069,23.9249